Date String (YYYY-MM-DD hh:mm:ss) UTC,Instrument flags,absolute air pressure of the measurement (hPa),sample flow rate (lpm),inlet stack bypass flow (lpm),air temperature of the measurement (°C),ambient temperature measured by the external sensor (°C),aerosol sample conditioner tube jacket temperature (°C),OPC LED temperature (°C),internal box temperature (°C),relative humidity of the measurement (%),span deviation,mass concentration of particles derived from Lorenz-Mie calculation of OPC scattering (μg/m³),mass concentration of particles derived from Lorenz-Mie calculation of OPC scattering (μg/m³),mass concentration of particles derived from Lorenz-Mie calculation of OPC scattering (μg/m³)
DateTimeUTC,F1_M11,P_M11,Q1_M11,Q2_M11,T1_M11,T2_M11,T3_M11,T4_M11,T5_M11,U1_M11,ZSPAN_M11,X2_M11,X0_M11,X1_M11
2024-01-06 10:00:00,SystemResetWarning,0824.4,4.99,000.00,018.8,017.8,000.0,027.2,020.0,12.7,0000.0,0002.67,0006.60,0002.12
2024-01-06 10:01:00,SystemResetWarning,0824.4,4.99,000.00,018.8,017.8,000.0,027.2,020.0,12.7,0000.0,0002.67,0006.59,0002.12
2024-01-06 10:02:00,SystemResetWarning,0824.4,5.00,000.00,018.8,017.8,000.0,027.2,020.0,12.7,0000.0,0002.71,0006.69,0002.12
2024-01-06 10:03:00,SystemResetWarning,0824.4,5.01,000.00,018.8,017.8,000.0,027.2,020.0,12.7,0000.0,0002.70,0006.72,0002.12
2024-01-06 10:04:00,SystemResetWarning,0824.4,5.01,000.00,018.8,017.8,000.0,027.2,020.0,12.7,0000.0,0002.66,0006.60,0002.11
2024-01-06 10:05:00,SystemResetWarning,0824.4,5.00,000.00,018.7,017.8,000.0,027.2,020.0,12.7,0000.0,0002.61,0005.92,0002.10
2024-01-06 10:06:00,SystemResetWarning,0824.4,4.99,000.00,018.7,017.8,000.0,027.2,020.0,12.6,0000.0,0002.62,0005.71,0002.11
2024-01-06 10:07:00,SystemResetWarning,0824.4,5.00,000.00,018.7,017.8,000.0,027.2,020.0,12.6,0000.0,0002.62,0005.50,0002.10
2024-01-06 10:08:00,SystemResetWarning,0824.4,5.01,000.00,018.7,017.8,000.0,027.2,020.0,12.5,0000.0,0002.65,0005.68,0002.09
2024-01-06 10:09:00,SystemResetWarning,0824.4,5.01,000.00,018.7,017.8,000.0,027.2,020.0,12.5,0000.0,0002.65,0005.83,0002.10
2024-01-06 10:10:00,SystemResetWarning,0824.3,4.99,000.00,018.7,017.8,000.0,027.2,020.0,12.5,0000.0,0002.68,0006.29,0002.11
2024-01-06 10:11:00,SystemResetWarning,0824.4,4.99,000.00,018.7,017.8,000.0,027.2,020.0,12.5,0000.0,0002.69,0006.57,0002.11
2024-01-06 10:12:00,SystemResetWarning,0824.4,5.00,000.00,018.7,017.8,000.0,027.2,020.0,12.6,0000.0,0002.70,0006.81,0002.12
2024-01-06 10:13:00,SystemResetWarning,0824.4,5.00,000.00,018.7,017.7,000.0,027.2,020.0,12.7,0000.0,0002.64,0006.62,0002.11
2024-01-06 10:14:00,SystemResetWarning,0824.4,5.01,000.00,018.8,017.7,000.0,027.2,020.0,12.7,0000.0,0002.68,0006.59,0002.11
2024-01-06 10:15:00,SystemResetWarning,0824.4,5.01,000.00,018.8,017.7,000.0,027.2,020.0,12.8,0000.0,0002.77,0007.03,0002.11
2024-01-06 10:16:00,SystemResetWarning,0824.4,5.01,000.00,018.8,017.6,000.0,027.2,020.0,12.8,0000.0,0002.80,0006.82,0002.12
2024-01-06 10:17:00,SystemResetWarning,0824.4,4.99,000.00,018.8,017.6,000.0,027.2,020.0,12.9,0000.0,0002.81,0006.00,0002.13
2024-01-06 10:18:00,SystemResetWarning,0824.4,4.99,000.00,018.8,017.6,000.0,027.2,020.0,13.0,0000.0,0002.79,0006.04,0002.13
2024-01-06 10:19:00,SystemResetWarning,0824.4,5.00,000.00,018.7,017.5,000.0,027.3,020.0,13.0,0000.0,0002.74,0005.76,0002.13
2024-01-06 10:20:00,SystemResetWarning,0824.4,4.99,000.00,018.7,017.5,000.0,027.3,020.0,13.0,0000.0,0002.73,0005.56,0002.13
2024-01-06 10:21:00,SystemResetWarning,0824.4,5.00,000.00,018.7,017.4,000.0,027.3,020.0,13.1,0000.0,0002.73,0005.16,0002.12
2024-01-06 10:22:00,SystemResetWarning,0824.3,5.01,000.00,018.7,017.4,000.0,027.3,020.0,13.1,0000.0,0002.72,0004.98,0002.11
2024-01-06 10:23:00,SystemResetWarning,0824.3,5.00,000.00,018.7,017.4,000.0,027.3,020.0,13.2,0000.0,0002.71,0004.71,0002.10
2024-01-06 10:24:00,SystemResetWarning,0824.4,4.99,000.00,018.7,017.4,000.0,027.3,020.0,13.2,0000.0,0002.77,0004.84,0002.11
2024-01-06 10:25:00,SystemResetWarning,0824.4,4.99,000.00,018.7,017.4,000.0,027.3,020.0,13.2,0000.0,0002.73,0004.67,0002.11
2024-01-06 10:26:00,SystemResetWarning,0824.4,5.00,000.00,018.7,017.3,000.0,027.3,020.0,13.2,0000.0,0002.64,0004.22,0002.09
2024-01-06 10:27:00,SystemResetWarning,0824.4,5.00,000.00,018.7,017.3,000.0,027.3,020.0,13.2,0000.0,0002.64,0004.14,0002.08
2024-01-06 10:28:00,SystemResetWarning,0824.4,5.00,000.00,018.7,017.2,000.0,027.3,020.0,13.2,0000.0,0002.64,0004.40,0002.05
2024-01-06 10:29:00,SystemResetWarning,0824.4,5.01,000.00,018.7,017.2,000.0,027.3,020.0,13.3,0000.0,0002.65,0004.91,0002.02
2024-01-06 10:30:00,SystemResetWarning,0824.4,4.99,000.00,018.7,017.2,000.0,027.3,020.0,13.3,0000.0,0002.64,0004.96,0002.01
2024-01-06 10:31:00,SystemResetWarning,0824.3,5.01,000.00,018.7,017.2,000.0,027.3,020.0,13.3,0000.0,0002.63,0004.99,0001.98
2024-01-06 10:32:00,SystemResetWarning,0824.3,5.01,000.00,018.7,017.2,000.0,027.3,020.0,13.3,0000.0,0002.59,0005.00,0001.96
2024-01-06 10:33:00,SystemResetWarning,0824.3,5.00,000.00,018.7,017.2,000.0,027.3,020.0,13.3,0000.0,0002.59,0005.17,0001.94
2024-01-06 10:34:00,SystemResetWarning,0824.3,5.00,000.00,018.7,017.1,000.0,027.2,020.0,13.3,0000.0,0002.59,0006.21,0001.93
2024-01-06 10:35:00,SystemResetWarning,0824.3,5.00,000.00,018.7,017.2,000.0,027.2,020.2,13.2,0000.0,0002.54,0006.37,0001.91
2024-01-06 10:36:00,SystemResetWarning,0824.4,5.00,000.00,018.8,017.9,000.0,027.1,020.4,13.2,0000.0,0002.50,0006.52,0001.88
2024-01-06 10:37:00,SystemResetWarning,0824.4,4.99,000.00,018.9,018.5,000.0,027.1,020.5,13.1,0000.0,0002.48,0006.53,0001.86
2024-01-06 10:38:00,SystemResetWarning,0824.3,4.99,000.00,018.8,018.5,000.0,027.1,020.1,13.1,0000.0,0002.42,0006.54,0001.83
2024-01-06 10:39:00,SystemResetWarning,0824.3,5.00,000.00,018.8,018.3,000.0,027.1,020.0,13.1,0000.0,0002.38,0006.25,0001.81
2024-01-06 10:40:00,SystemResetWarning,0824.4,5.00,000.00,018.8,018.1,000.0,027.2,020.0,13.1,0000.0,0002.32,0005.49,0001.79
2024-01-06 10:41:00,SystemResetWarning,0824.3,5.01,000.00,018.8,017.9,000.0,027.2,020.0,13.1,0000.0,0002.33,0005.53,0001.77
2024-01-06 10:42:00,SystemResetWarning,0824.4,5.02,000.00,018.7,017.8,000.0,027.2,020.0,13.1,0000.0,0002.32,0005.53,0001.77
2024-01-06 10:43:00,SystemResetWarning,0824.3,5.00,000.00,018.7,017.6,000.0,027.2,020.0,13.1,0000.0,0002.31,0005.42,0001.76
2024-01-06 10:44:00,SystemResetWarning,0824.3,4.99,000.00,018.7,017.5,000.0,027.2,020.0,13.1,0000.0,0002.30,0005.33,0001.75
2024-01-06 10:45:00,SystemResetWarning,0824.3,5.00,000.00,018.7,017.5,000.0,027.2,020.0,13.1,0000.0,0002.22,0004.50,0001.73
2024-01-06 10:46:00,SystemResetWarning,0824.4,5.00,000.00,018.7,017.4,000.0,027.2,020.0,13.1,0000.0,0002.20,0003.86,0001.71
2024-01-06 10:47:00,SystemResetWarning,0824.3,5.00,000.00,018.7,017.4,000.0,027.2,020.0,13.1,0000.0,0002.14,0003.79,0001.69
2024-01-06 10:48:00,SystemResetWarning,0824.4,5.00,000.00,018.7,017.3,000.0,027.2,020.0,13.1,0000.0,0002.12,0004.93,0001.68
2024-01-06 10:49:00,SystemResetWarning,0824.3,5.00,000.00,018.7,017.3,000.0,027.2,020.0,13.1,0000.0,0002.17,0006.34,0001.69
2024-01-06 10:50:00,SystemResetWarning,0824.3,5.00,000.00,018.7,017.2,000.0,027.2,020.0,13.1,0000.0,0002.16,0006.48,0001.70
2024-01-06 10:51:00,SystemResetWarning,0824.4,5.00,000.00,018.7,017.2,000.0,027.2,020.0,13.1,0000.0,0002.24,0006.71,0001.72
2024-01-06 10:52:00,SystemResetWarning,0824.4,5.00,000.00,018.7,017.2,000.0,027.2,020.0,13.1,0000.0,0002.23,0006.67,0001.73
2024-01-06 10:53:00,SystemResetWarning,0824.3,5.00,000.00,018.7,017.1,000.0,027.2,020.0,13.1,0000.0,0002.29,0006.90,0001.73
2024-01-06 10:54:00,SystemResetWarning,0824.3,5.00,000.00,018.7,017.5,000.0,027.2,020.2,13.1,0000.0,0002.32,0007.40,0001.74
2024-01-06 10:55:00,SystemResetWarning,0824.3,5.01,000.00,018.8,018.3,000.0,027.1,020.5,13.0,0000.0,0002.34,0007.57,0001.76
2024-01-06 10:56:00,SystemResetWarning,0824.3,4.99,000.00,018.9,018.6,000.0,027.1,020.3,13.0,0000.0,0002.40,0007.71,0001.78
2024-01-06 10:57:00,SystemResetWarning,0824.3,4.99,000.00,018.8,018.4,000.0,027.1,020.0,13.0,0000.0,0002.43,0007.75,0001.79
2024-01-06 10:58:00,SystemResetWarning,0824.3,5.02,000.00,018.8,018.2,000.0,027.2,020.0,13.0,0000.0,0002.50,0008.15,0001.82
2024-01-06 10:59:00,SystemResetWarning,0824.3,5.00,000.00,018.8,018.1,000.0,027.2,020.0,13.0,0000.0,0002.54,0007.85,0001.84
